This demonstration page uses our WeatherBlox Daily Observations layout. Learn more.

Left ArrowRight Arrow

Hourly Observations for March 15, 2021

Temp ( °F °C ) Dew Point ( °F °C ) Humidity (%) Winds ( mph kmh ) Pressure ( in mb ) Visibility ( mi km ) Precip ( " mm )
12:07 am 00:07 Cloudy with Light Rain 43 6.1 39 3.9 86 86 E 10 17 29.91 1013 10 16 0.04 1.02
12:54 am 00:54 Cloudy 43 6.1 39 3.9 86 86 ESE 17 28 29.88 1012 10 16 0.04 1.02
1:54 am 01:54 Cloudy 43 6.1 39 3.9 86 86 ESE 18 30 29.89 1012 10 16 N/A
2:15 am 02:15 Cloudy 43 6.1 39 3.9 86 86 ESE 16 26 29.91 1013 10 16 N/A
2:54 am 02:54 Cloudy 42 5.6 39 3.9 89 89 ESE 16 26 29.89 1012 10 16 N/A
3:54 am 03:54 Cloudy 42 5.6 39 3.9 89 89 E 12 19 29.87 1012 10 16 N/A
4:54 am 04:54 Cloudy with Mist and Fog 41 5 38 3.3 89 89 E 10 17 29.85 1011 5 8 N/A
5:35 am 05:35 Cloudy with Mist and Fog 41 5 38 3.3 89 89 ENE 10 17 29.87 1012 3 5 N/A
5:54 am 05:54 Cloudy with Mist and Fog 40 4.4 38 3.3 93 93 ENE 14 22 29.85 1011 3 5 N/A
6:54 am 06:54 Cloudy with Mist and Fog 41 5 38 3.3 89 89 E 10 17 29.85 1011 4 6 N/A
7:51 am 07:51 Cloudy with Mist and Fog 43 6 39 4 87 87 E 9 15 29.87 1012 2 3 N/A
7:54 am 07:54 Cloudy with Mist and Fog 42 5.6 40 4.4 92 92 E 10 17 29.85 1011 3 4 N/A
8:05 am 08:05 Cloudy with Mist and Fog 42 5.6 40 4.4 92 92 E 9 15 29.86 1011 3 5 N/A
8:39 am 08:39 Cloudy with Mist and Fog 42 5.6 39 3.9 89 89 E 13 20 29.86 1011 2 3 N/A
8:54 am 08:54 Cloudy with Mist and Fog 42 5.6 39 3.9 89 89 E 10 17 29.85 1011 2 3 N/A
9:54 am 09:54 Cloudy with Mist and Fog 42 5.6 39 3.9 89 89 ENE 14 22 29.84 1011 2 3 N/A
10:54 am 10:54 Cloudy with Mist and Fog 42 5.6 39 3.9 89 89 ENE 12 19 29.84 1011 2 3 N/A
11:54 am 11:54 Cloudy with Mist and Fog 42 5.6 39 3.9 89 89 ENE 14 22 29.83 1010 2 3 N/A
12:17 pm 12:17 Cloudy with Mist and Fog 42 5.6 39 3.9 89 89 NE 15 24 29.84 1011 2 3 N/A
12:54 pm 12:54 Cloudy with Light Rain 41 5 39 3.9 93 93 NE 16 26 29.82 1010 3 4 0.00 0.00
1:54 pm 13:54 Cloudy with Mist and Fog 41 5 39 3.9 93 93 NE 15 24 29.82 1010 2 3 0.01 0.25
2:54 pm 14:54 Cloudy with Mist and Fog 41 5 39 3.9 93 93 E 13 20 29.81 1010 2 3 N/A
3:01 pm 15:01 Cloudy with Mist and Fog 41 5 39 3.9 93 93 ENE 10 17 29.83 1010 2 3 N/A
3:54 pm 15:54 Cloudy with Mist and Fog 41 5 38 3.3 89 89 ENE 10 17 29.82 1010 2 2 N/A
4:54 pm 16:54 Cloudy with Mist and Fog 40 4.4 38 3.3 93 93 NNE 12 19 29.83 1010 1 2 N/A
5:54 pm 17:54 Cloudy with Mist and Fog 40 4.4 38 3.3 93 93 NE 9 15 29.83 1010 1 2 N/A
6:54 pm 18:54 Cloudy with Mist and Fog 39 3.9 37 2.8 93 93 ENE 9 15 29.83 1010 1 2 N/A
7:30 pm 19:30 Cloudy with Mist and Fog 39 3.9 37 2.8 93 93 NE 8 13 29.87 1012 2 3 N/A
7:40 pm 19:40 Cloudy with Mist and Fog 39 3.9 37 2.8 93 93 NE 6 9 29.88 1012 2 3 N/A
7:54 pm 19:54 Cloudy with Light Rain 39 3.9 37 2.8 93 93 NE 6 9 29.87 1011 2 2 0.00 0.00
8:23 pm 20:23 Cloudy with Mist and Fog 39 3.9 37 2.8 93 93 ENE 7 11 29.90 1013 3 4 0.01 0.25
8:54 pm 20:54 Cloudy with Mist and Fog 39 3.9 37 2.8 93 93 NE 6 9 29.88 1012 2 3 0.02 0.51
9:10 pm 21:10 Cloudy with Mist and Fog 39 3.9 37 2.8 93 93 NE 6 9 29.92 1013 3 5 N/A
9:29 pm 21:29 Cloudy with Mist and Fog 39 3.9 37 2.8 93 93 NE 7 11 29.92 1013 3 4 N/A
9:41 pm 21:41 Cloudy with Mist and Fog 39 3.9 37 2.8 93 93 NE 7 11 29.93 1014 3 5 N/A
9:52 pm 21:52 Cloudy with Mist and Fog 39 4 37 3 93 93 NE 7 11 29.93 1014 3 4 N/A
9:54 pm 21:54 Cloudy with Mist and Fog 39 3.9 37 2.8 93 93 NE 7 11 29.90 1013 3 4 N/A
10:03 pm 22:03 Cloudy with Mist and Fog 39 3.9 37 2.8 93 93 NE 7 11 29.93 1014 3 4 N/A
10:35 pm 22:35 Cloudy with Mist and Fog 39 3.9 37 2.8 93 93 NE 7 11 29.93 1014 3 5 N/A
10:54 pm 22:54 Cloudy with Mist and Fog 39 3.9 37 2.8 93 93 NE 7 11 29.90 1013 4 6 N/A
11:54 pm 23:54 Cloudy with Mist and Fog 39 3.9 37 2.8 93 93 NE 7 11 29.89 1012 3 5 N/A

Powered by AerisWeather